SCP
0 0 0 0 0 0 0 0 0 0 0 0 0 0 0 0 0 0 0 0 0 0 0 0 0 1 1 1 1 1 1 0 0 0 0 0 0 0 0 0 0 0 0 0
0 0 0 0 0 0 0 0 0 0 0 0 0 0 0 0 0 0 0 0 0 0 0 0 0 0 1 1 1 1 1 0 0 0 0 0 0 0 0 0 0 0 0 0
0 0 0 0 0 0 0 0 0 0 0 0 0 0 0 0 0 0 0 0 0 0 0 0 0 0 0 0 1 1 1 0 0 0 0 0 0 0 0 0 0 0 0 0
0 0 0 0 0 0 0 0 0 0 0 0 0 0 0 0 0 0 0 0 0 0 0 0 0 0 0 0 0 0 0 0 0 0 0 0 0 0 0 0 0 0 0 0
0 0 0 0 0 0 0 0 0 0 0 0 0 0 0 0 0 0 0 0 0 -0 0 0 0 0 0 0 0 0 0 0 0 0 0 0 0 0 0 0 0 0 0 0
0 0 0 0 0 0 0 0 0 0 0 0 0 0 0 0 0 0 0 0 -0 -0 0 0 0 0 0 0 0 0 0 0 0 0 0 0 0 0 0 0 0 0 0 0
0 0 0 0 0 0 0 0 0 0 0 0 0 0 0 0 0 0 0 0 0 0 0 0 0 0 0 0 0 0 0 0 0 0 0 0 0 0 0 0 0 0 0 0
0 0 0 0 0 0 0 0 0 0 0 0 0 0 0 0 0 0 0 0 0 0 0 0 0 0 0 0 0 0 0 0 0 0 0 0 0 0 0 0 0 0 0 0
0 0 0 0 0 0 0 0 0 0 0 0 0 0 0 0 0 0 0 0 0 0 0 0 0 0 0 0 0 0 0 0 0 0 0 0 0 0 0 0 0 0 0 0
0 0 0 0 0 0 0 0 0 0 0 0 0 0 0 0 0 0 0 0 0 0 0 0 0 0 0 0 0 0 0 0 0 0 0 0 0 0 0 0 0 0 0 0
0 0 0 0 0 0 0 0 0 0 0 0 0 0 0 0 0 0 0 0 0 0 0 0 0 0 0 0 0 0 0 0 0 0 0 0 0 0 0 0 0 0 0 0
0 0 0 0 0 0 0 0 0 0 0 0 0 0 0 0 0 0 0 0 0 0 0 0 0 0 0 0 0 0 0 0 0 0 0 0 0 0 0 0 0 0 0 0
0 0 0 0 0 0 0 0 0 0 0 0 0 0 0 0 0 0 0 0 0 0 0 0 0 0 0 0 0 0 0 0 0 0 0 0 0 0 0 0 0 0 0 0
0 0 0 0 0 0 0 0 0 0 0 0 0 0 0 0 0 0 0 0 0 0 0 0 0 0 0 0 0 0 0 0 0 0 0 0 0 0 0 0 0 0 0 0
0 0 0 0 0 0 0 0 0 0 0 0 0 0 0 0 0 0 0 0 0 0 0 0 0 0 0 0 0 0 0 0 0 0 0 0 0 0 0 0 0 0 0 0
0 0 0 0 0 0 0 0 0 0 0 0 0 0 0 0 0 0 0 0 0 0 0 0 0 0 0 0 0 0 0 0 0 0 0 0 0 0 0 0 0 0 0 0
0 0 0 0 0 0 0 0 0 0 0 0 0 0 0 0 0 0 0 0 0 0 0 0 0 0 0 0 0 0 0 0 0 0 0 0 0 0 0 0 0 0 0 0
0 0 0 0 0 0 0 0 0 0 0 0 0 0 0 0 0 0 0 0 0 0 0 0 0 0 0 0 0 0 0 0 0 0 0 0 0 0 0 0 0 0 0 0
0 0 0 0 0 0 0 0 0 0 0 0 0 0 0 0 0 0 0 0 0 0 0 0 0 0 0 0 0 0 0 0 0 0 0 0 0 0 0 0 0 0 0 0
0 0 0 0 0 0 0 0 0 0 0 0 0 0 0 0 0 0 0 0 0 0 0 0 0 0 0 0 0 0 0 0 0 0 0 0 0 0 0 0 0 0 0 0
0 0 0 0 0 0 0 0 0 0 0 0 0 0 0 0 0 0 0 0 0 0 0 0 0 0 0 0 0 0 0 0 0 0 0 0 0 0 0 0 0 0 0 0
0 0 0 0 0 0 0 0 0 0 0 0 0 0 0 0 0 0 0 0 0 0 0 0 0 0 0 0 0 0 0 0 0 0 0 0 0 0 0 0 0 0 0 0
0 0 0 0 0 0 0 0 0 0 0 0 0 0 0 0 0 0 0 0 0 0 0 0 0 0 0 0 0 0 0 0 0 0 0 0 0 0 0 0 0 0 0 0
0 0 0 0 0 0 0 0 0 0 0 0 0 0 0 0 0 0 0 0 0 0 0 0 0 0 0 0 0 0 0 0 0 0 0 0 0 0 0 0 0 0 0 0
0 0 0 0 0 0 0 0 0 0 0 0 0 0 0 0 0 0 0 0 0 0 0 0 0 0 0 0 0 0 0 0 0 0 0 0 0 0 0 0 0 0 0 0
0 0 0 0 0 0 0 0 0 0 0 0 0 0 0 0 0 0 0 0 0 0 0 0 0 0 0 0 0 0 0 0 0 0 0 0 0 0 0 0 0 0 0 0
Wind_Speed
2 3 2 5 5 4 3 3 6 7 4 3 6 10 12 8 4 5 5 5 5 4 4 2 1 1 1 2 2 3 2 2 2 2 1 1 1 0 0 1 2 3 3 3
3 3 5 2 2 2 2 3 5 6 3 2 6 10 9 6 4 4 4 4 4 4 3 2 1 0 1 3 3 3 3 3 3 2 2 1 1 1 1 1 1 2 2 3
5 4 1 2 2 2 4 5 5 5 5 2 4 8 6 4 2 3 3 3 3 3 3 3 1 1 2 2 3 3 4 3 3 2 2 2 2 1 1 0 1 1 2 3
4 3 1 2 3 4 5 5 4 3 2 4 1 6 8 4 5 4 4 3 4 3 2 2 2 2 2 2 3 3 3 3 3 3 3 4 3 2 2 2 2 2 3 3
4 2 2 4 4 5 5 1 2 2 2 3 2 3 10 3 5 6 4 4 3 3 2 2 2 2 2 1 2 2 3 3 3 4 4 4 2 2 1 1 2 2 2 3
4 2 3 4 1 3 2 2 2 2 2 4 4 4 8 4 5 4 3 4 3 3 2 2 2 2 2 1 1 1 2 2 3 3 4 4 4 2 2 2 2 2 1 2
4 3 2 2 1 1 2 3 3 4 2 6 2 4 10 6 4 4 3 3 3 3 2 2 3 2 2 2 1 1 2 3 3 3 4 5 4 4 5 4 4 3 2 2
2 6 4 3 4 4 3 4 4 4 4 5 2 7 9 4 2 2 2 2 2 3 3 2 3 2 2 2 1 2 3 3 3 4 4 4 3 3 3 3 3 4 3 3
4 6 2 2 2 6 4 3 3 3 1 3 6 7 9 2 1 1 1 1 2 3 3 3 3 2 2 2 2 3 3 3 3 4 3 3 3 3 3 3 2 2 2 2
4 4 4 2 1 1 3 5 3 3 3 5 6 5 6 4 4 3 2 2 3 3 3 4 4 3 3 2 2 2 2 3 3 3 3 2 3 3 2 2 2 2 2 2
1 3 3 1 5 6 3 3 3 3 3 3 5 8 5 5 4 3 3 3 2 3 3 3 3 3 3 2 2 2 1 2 2 2 2 2 2 2 2 2 2 2 2 3
2 2 4 6 5 4 5 5 6 4 4 4 3 9 2 3 2 2 3 3 3 3 3 3 3 3 3 3 2 2 1 1 1 2 2 2 1 1 2 2 1 2 2 2
1 2 2 4 2 1 2 2 3 2 2 5 6 9 2 2 2 2 2 3 3 3 3 3 3 3 3 3 2 2 2 1 1 0 1 1 1 1 2 2 2 2 2 2
0 4 7 9 6 3 5 5 4 3 4 6 10 10 6 5 5 4 3 3 3 2 2 3 3 3 3 3 2 2 2 1 0 0 0 1 1 1 2 1 1 2 2 2
2 5 6 8 7 6 8 9 8 10 10 10 10 10 10 7 6 5 3 2 2 3 3 3 3 4 4 4 3 2 2 2 1 0 1 1 1 1 0 0 1 1 1 1
1 3 4 6 6 7 10 10 11 12 10 10 10 11 7 5 2 2 2 1 2 3 3 4 4 4 4 4 4 3 2 2 1 1 1 1 1 0 0 0 0 0 1 1
3 3 2 5 3 4 8 7 8 6 5 5 8 8 3 3 3 3 3 2 2 3 3 3 4 4 4 4 4 3 2 1 1 1 1 1 1 1 1 1 1 0 0 0
6 4 3 3 1 8 6 2 3 5 5 4 4 4 3 4 3 2 1 1 3 3 3 3 3 4 3 3 4 3 2 1 1 1 2 1 1 1 1 1 0 1 0 1
8 7 4 3 4 7 5 3 1 3 4 2 4 4 2 2 2 3 1 1 2 3 3 3 3 3 3 3 3 2 2 2 2 2 2 2 1 1 1 1 1 1 0 1
2 5 4 3 4 6 3 4 4 1 4 3 2 2 1 1 1 4 3 3 3 2 2 2 3 2 3 4 3 2 2 3 3 3 3 2 1 1 1 1 2 1 1 1
1 2 4 4 5 5 3 5 2 1 4 4 2 1 1 2 3 3 3 3 3 3 2 2 2 3 3 3 2 3 3 3 4 3 2 2 2 1 1 1 1 1 1 1
3 3 4 3 5 6 2 2 1 3 4 4 3 2 1 2 2 2 2 3 3 4 3 3 3 4 4 3 3 3 3 4 3 3 2 2 2 2 1 1 1 1 0 0
3 3 2 4 4 2 1 1 2 3 3 3 3 3 2 2 3 3 3 3 3 3 3 3 3 4 4 4 3 3 4 4 3 3 3 3 2 2 1 1 1 1 1 0
3 1 1 3 4 4 3 3 4 4 3 4 3 3 2 2 2 3 3 3 3 4 3 3 3 4 5 5 4 3 4 3 3 3 3 3 2 2 2 2 1 1 1 1
3 1 2 4 4 4 3 3 4 5 5 5 5 3 2 2 2 2 2 3 3 3 3 3 3 3 4 5 5 5 4 3 3 3 3 3 2 2 2 2 2 2 1 1
2 2 3 4 3 3 4 3 4 4 5 4 4 4 4 3 2 3 3 3 3 3 3 3 3 4 4 4 5 5 4 3 3 3 3 3 2 2 2 2 3 5 4 4
Wind_Direction
39 72 213 223 205 206 199 226 262 266 271 282 268 276 284 293 292 289 290 291 288 279 278 293 281 214 194 188 185 181 178 166 149 139 149 143 157 138 118 151 133 133 136 136
42 251 237 205 182 181 208 252 272 285 290 271 285 283 279 276 267 267 273 284 290 305 320 327 335 326 230 206 196 188 182 176 177 176 174 152 134 177 161 114 128 140 149 157
201 239 187 162 191 214 241 225 247 270 317 320 307 301 289 286 278 296 300 285 288 281 289 310 314 260 261 232 207 200 192 184 181 161 128 89 69 56 80 111 180 181 174 178
239 254 194 197 224 189 258 234 230 261 311 297 358 300 293 290 306 305 306 309 302 295 287 299 302 299 267 245 217 206 196 187 181 164 161 157 170 190 208 195 196 193 188 186
249 216 198 222 228 191 230 247 219 248 234 285 267 246 284 313 293 287 285 291 292 294 285 289 284 274 280 256 218 202 194 192 188 187 184 183 196 202 173 168 182 193 199 194
249 245 213 217 232 183 175 45 34 49 80 272 228 197 277 249 240 270 283 300 301 305 307 306 298 308 333 344 340 203 190 203 199 199 195 196 198 189 172 189 201 202 201 203
303 276 232 155 78 38 94 82 9 343 328 254 210 210 252 248 235 233 252 280 312 327 336 340 335 327 328 325 303 244 210 214 208 207 208 207 205 196 198 200 203 204 200 209
265 281 231 188 180 182 196 160 172 227 245 280 275 239 255 253 254 249 251 263 333 346 339 323 308 300 303 292 270 244 229 224 211 211 216 211 203 201 208 211 209 211 213 210
206 256 293 245 206 151 160 203 188 163 235 273 266 277 297 260 278 276 291 324 338 333 334 329 319 309 304 299 270 246 234 231 221 219 218 212 206 207 210 211 203 207 213 206
186 255 272 275 80 236 174 156 123 164 220 263 278 265 252 247 248 255 267 287 299 321 331 334 331 321 312 298 290 263 232 230 221 212 214 221 216 216 208 194 200 201 199 191
185 220 288 298 207 202 163 173 171 178 192 207 269 268 229 216 220 234 252 264 276 300 311 319 320 319 320 330 335 326 278 240 222 210 213 217 216 210 196 198 206 200 195 189
181 163 256 255 252 218 200 195 168 187 226 208 238 268 275 206 222 233 254 275 295 305 310 317 321 330 339 342 339 334 331 287 247 226 215 218 218 203 201 214 215 201 200 199
156 164 301 318 318 1 237 214 194 175 172 198 217 262 316 353 316 282 267 284 302 312 322 331 336 333 333 334 329 319 309 298 296 196 203 223 223 209 215 222 208 196 194 197
296 205 211 225 235 227 256 254 233 200 219 233 230 254 283 291 285 286 283 281 292 299 312 328 330 325 325 323 318 310 303 301 307 151 183 222 242 228 220 216 189 187 181 185
158 235 241 253 261 254 253 247 229 228 224 232 251 251 264 265 262 267 274 293 320 323 328 326 323 324 329 329 321 321 319 322 318 313 270 264 270 264 231 187 173 170 170 184
195 245 266 269 260 259 265 253 240 242 239 241 258 266 270 277 273 272 268 265 289 301 314 319 323 328 329 328 323 319 326 327 335 318 297 310 327 346 341 296 230 164 175 179
220 209 242 263 278 299 264 243 229 227 222 212 237 255 287 288 264 253 256 262 279 289 301 309 310 310 312 314 313 307 312 331 346 337 331 334 350 3 353 351 15 340 254 174
205 209 224 253 246 242 244 233 207 222 238 222 249 274 268 256 269 272 235 238 283 293 298 301 307 313 315 319 323 325 337 351 351 347 340 343 6 13 5 12 349 313 295 233
203 196 203 210 234 266 296 307 260 219 259 254 260 289 302 347 359 316 313 300 269 279 288 295 303 306 320 332 334 351 359 359 3 349 333 328 340 354 354 328 295 281 257 265
175 187 191 201 223 242 271 307 296 186 269 308 279 286 308 43 302 283 330 333 319 325 327 327 332 346 351 342 350 19 8 2 347 333 325 321 321 320 298 286 286 289 252 250
155 184 208 215 237 259 290 313 11 163 279 320 314 290 233 225 240 278 330 337 339 339 343 356 5 5 350 344 7 17 7 343 325 329 334 337 337 325 303 310 312 309 326 336
202 198 202 193 223 249 330 30 125 270 312 329 332 329 315 301 311 326 341 344 354 354 0 8 15 6 359 5 21 15 349 328 336 345 346 341 339 339 355 13 352 353 15 10
227 214 210 205 229 285 324 287 302 321 320 327 330 329 333 323 323 337 347 353 358 359 358 1 13 7 4 7 15 7 336 339 351 1 355 347 351 352 359 24 15 359 358 330
282 313 236 271 277 308 332 351 352 350 343 343 346 342 349 340 340 349 353 356 360 359 358 4 18 16 2 0 4 349 339 348 3 3 355 359 4 5 10 13 14 360 325 295
259 287 281 273 298 328 336 350 344 348 356 357 355 359 1 18 356 344 348 352 354 352 358 9 13 12 359 358 358 352 351 2 8 2 2 4 9 7 6 7 4 345 319 287
238 224 228 255 272 268 290 337 356 360 350 349 358 1 3 11 359 358 354 354 355 359 8 11 9 5 358 0 357 353 353 1 8 5 4 359 356 358 1 4 2 8 353 342